,,PressureMeas_1m,,PRMeasQMR101_1,,RHStat155_1m_1,,SRMeasQMS101R_1m,,TAStat155_1m_1,,GenWind_1,,GenWind_1,
2017-06-06, 07:00:07,VALID,918.095,VALID,0.0,VALID,96.565,VALID,71.101,VALID,18.141,VALID,136.0,VALID,0.573,
2017-06-06, 07:01:07,VALID,918.08,VALID,0.0,VALID,96.626,VALID,72.676,VALID,18.137,VALID,130.0,VALID,0.529,
2017-06-06, 07:02:07,VALID,918.088,VALID,0.0,VALID,96.406,VALID,74.099,VALID,18.108,VALID,128.0,VALID,0.529,
2017-06-06, 07:03:07,VALID,918.107,VALID,0.0,VALID,96.783,VALID,75.305,VALID,18.152,VALID,128.0,VALID,0.408,
2017-06-06, 07:04:07,VALID,918.148,VALID,0.0,VALID,96.954,VALID,76.802,VALID,18.195,VALID,129.0,VALID,0.346,
2017-06-06, 07:05:07,VALID,918.192,VALID,0.0,VALID,97.013,VALID,79.204,VALID,18.262,VALID,139.0,VALID,0.334,
2017-06-06, 07:06:07,VALID,918.212,VALID,0.0,VALID,97.099,VALID,82.033,VALID,18.323,VALID,133.0,VALID,0.15,
2017-06-06, 07:07:07,VALID,918.203,VALID,0.0,VALID,96.606,VALID,85.477,VALID,18.315,VALID,119.0,VALID,0.304,
2017-06-06, 07:08:07,VALID,918.207,VALID,0.0,VALID,96.69,VALID,88.553,VALID,18.36,VALID,102.0,VALID,0.409,
2017-06-06, 07:09:07,VALID,918.234,VALID,0.0,VALID,96.852,VALID,91.356,VALID,18.429,VALID,102.0,VALID,0.3,
2017-06-06, 07:10:07,VALID,918.259,VALID,0.0,VALID,97.029,VALID,92.926,VALID,18.502,VALID,102.0,VALID,0.226,
2017-06-06, 07:11:07,VALID,918.29,VALID,0.0,VALID,97.168,VALID,94.486,VALID,18.596,VALID,102.0,VALID,0.375,
2017-06-06, 07:12:07,VALID,918.324,VALID,0.0,VALID,97.119,VALID,97.146,VALID,18.659,VALID,102.0,VALID,0.271,
2017-06-06, 07:13:07,VALID,918.358,VALID,0.0,VALID,96.899,VALID,100.996,VALID,18.697,VALID,102.0,VALID,0.069,
2017-06-06, 07:14:07,VALID,918.395,VALID,0.0,VALID,96.598,VALID,104.617,VALID,18.749,VALID,102.0,VALID,0.0,
2017-06-06, 07:15:07,VALID,918.4,VALID,0.0,VALID,96.427,VALID,107.085,VALID,18.823,VALID,102.0,VALID,0.0,
2017-06-06, 07:16:07,VALID,918.417,VALID,0.0,VALID,96.048,VALID,109.456,VALID,18.878,VALID,102.0,VALID,0.001,
2017-06-06, 07:17:07,VALID,918.424,VALID,0.0,VALID,95.459,VALID,112.042,VALID,18.88,VALID,123.0,VALID,0.134,
2017-06-06, 07:18:07,VALID,918.418,VALID,0.0,VALID,95.067,VALID,115.063,VALID,18.855,VALID,149.0,VALID,0.261,
2017-06-06, 07:19:07,VALID,918.415,VALID,0.0,VALID,95.284,VALID,117.074,VALID,18.883,VALID,151.0,VALID,0.119,
2017-06-06, 07:20:07,VALID,918.42,VALID,0.0,VALID,95.419,VALID,117.597,VALID,18.947,VALID,152.0,VALID,0.032,
2017-06-06, 07:21:07,VALID,918.432,VALID,0.0,VALID,95.26,VALID,118.482,VALID,19.014,VALID,152.0,VALID,0.054,
2017-06-06, 07:22:07,VALID,918.472,VALID,0.0,VALID,95.08,VALID,119.705,VALID,19.091,VALID,152.0,VALID,0.0,
2017-06-06, 07:23:07,VALID,918.476,VALID,0.0,VALID,94.882,VALID,120.48,VALID,19.184,VALID,152.0,VALID,0.0,
2017-06-06, 07:24:07,VALID,918.473,VALID,0.0,VALID,94.487,VALID,120.18,VALID,19.272,VALID,152.0,VALID,0.0,
2017-06-06, 07:25:07,VALID,918.479,VALID,0.0,VALID,94.15,VALID,119.93,VALID,19.363,VALID,152.0,VALID,0.0,
2017-06-06, 07:26:07,VALID,918.483,VALID,0.0,VALID,93.796,VALID,119.715,VALID,19.44,VALID,152.0,VALID,0.0,
2017-06-06, 07:27:07,VALID,918.504,VALID,0.0,VALID,93.824,VALID,119.253,VALID,19.525,VALID,152.0,VALID,0.0,
2017-06-06, 07:28:07,VALID,918.542,VALID,0.0,VALID,93.771,VALID,118.464,VALID,19.612,VALID,152.0,VALID,0.0,
2017-06-06, 07:29:07,VALID,918.556,VALID,0.0,VALID,93.485,VALID,117.047,VALID,19.706,VALID,152.0,VALID,0.0,
2017-06-06, 07:30:07,VALID,918.56,VALID,0.0,VALID,92.795,VALID,116.114,VALID,19.819,VALID,152.0,VALID,0.0,
2017-06-06, 07:31:07,VALID,918.556,VALID,0.0,VALID,92.72,VALID,115.398,VALID,19.931,VALID,152.0,VALID,0.0,
2017-06-06, 07:32:07,VALID,918.58,VALID,0.0,VALID,93.342,VALID,115.371,VALID,19.985,VALID,152.0,VALID,0.0,
2017-06-06, 07:33:07,VALID,918.599,VALID,0.0,VALID,92.829,VALID,115.795,VALID,20.002,VALID,152.0,VALID,0.0,
2017-06-06, 07:34:07,VALID,918.628,VALID,0.0,VALID,90.525,VALID,116.644,VALID,20.043,VALID,152.0,VALID,0.0,
2017-06-06, 07:35:07,VALID,918.651,VALID,0.0,VALID,89.834,VALID,117.577,VALID,20.125,VALID,152.0,VALID,0.0,
2017-06-06, 07:36:07,VALID,918.671,VALID,0.0,VALID,89.694,VALID,118.58,VALID,20.182,VALID,148.0,VALID,0.018,
2017-06-06, 07:37:07,VALID,918.66,VALID,0.0,VALID,89.378,VALID,119.72,VALID,20.227,VALID,131.0,VALID,0.075,
2017-06-06, 07:38:07,VALID,918.645,VALID,0.0,VALID,89.934,VALID,121.062,VALID,20.267,VALID,32.0,VALID,0.118,
2017-06-06, 07:39:07,VALID,918.635,VALID,0.0,VALID,91.179,VALID,122.762,VALID,20.276,VALID,32.0,VALID,0.068,
2017-06-06, 07:40:07,VALID,918.637,VALID,0.0,VALID,91.085,VALID,124.744,VALID,20.278,VALID,32.0,VALID,0.138,
2017-06-06, 07:41:07,VALID,918.661,VALID,0.0,VALID,91.308,VALID,127.428,VALID,20.289,VALID,30.0,VALID,0.081,
2017-06-06, 07:42:07,VALID,918.693,VALID,0.0,VALID,91.9,VALID,131.457,VALID,20.324,VALID,30.0,VALID,0.0,
2017-06-06, 07:43:07,VALID,918.721,VALID,0.0,VALID,90.697,VALID,136.191,VALID,20.349,VALID,30.0,VALID,0.001,
2017-06-06, 07:44:07,VALID,918.715,VALID,0.0,VALID,90.721,VALID,140.73,VALID,20.383,VALID,30.0,VALID,0.0,
2017-06-06, 07:45:07,VALID,918.713,VALID,0.0,VALID,90.231,VALID,145.397,VALID,20.435,VALID,65.0,VALID,0.105,
2017-06-06, 07:46:07,VALID,918.709,VALID,0.0,VALID,89.807,VALID,149.601,VALID,20.451,VALID,92.0,VALID,0.026,
2017-06-06, 07:47:07,VALID,918.72,VALID,0.0,VALID,90.212,VALID,150.354,VALID,20.476,VALID,92.0,VALID,0.003,
2017-06-06, 07:48:07,VALID,918.728,VALID,0.0,VALID,90.026,VALID,150.758,VALID,20.49,VALID,92.0,VALID,0.044,
2017-06-06, 07:49:07,VALID,918.745,VALID,0.0,VALID,89.793,VALID,156.155,VALID,20.504,VALID,81.0,VALID,0.087,
2017-06-06, 07:50:07,VALID,918.77,VALID,0.0,VALID,90.195,VALID,167.674,VALID,20.522,VALID,78.0,VALID,0.056,
2017-06-06, 07:51:07,VALID,918.789,VALID,0.0,VALID,89.339,VALID,179.865,VALID,20.511,VALID,76.0,VALID,0.098,
2017-06-06, 07:52:07,VALID,918.807,VALID,0.0,VALID,88.997,VALID,195.87,VALID,20.523,VALID,76.0,VALID,0.0,
2017-06-06, 07:53:07,VALID,918.831,VALID,0.0,VALID,89.492,VALID,207.427,VALID,20.593,VALID,76.0,VALID,0.0,
2017-06-06, 07:54:07,VALID,918.855,VALID,0.0,VALID,89.856,VALID,221.062,VALID,20.695,VALID,76.0,VALID,0.0,
2017-06-06, 07:55:07,VALID,918.875,VALID,0.0,VALID,90.524,VALID,228.197,VALID,20.822,VALID,15.0,VALID,0.17,
2017-06-06, 07:56:07,VALID,918.867,VALID,0.0,VALID,90.164,VALID,245.513,VALID,20.937,VALID,337.0,VALID,0.118,
2017-06-06, 07:57:07,VALID,918.86,VALID,0.0,VALID,89.241,VALID,254.822,VALID,21.016,VALID,334.0,VALID,0.195,
2017-06-06, 07:58:07,VALID,918.861,VALID,0.0,VALID,88.883,VALID,257.691,VALID,21.075,VALID,324.0,VALID,0.27,
2017-06-06, 07:59:07,VALID,918.873,VALID,0.0,VALID,88.726,VALID,258.634,VALID,21.137,VALID,340.0,VALID,0.156,
2017-06-06, 08:00:07,VALID,918.867,VALID,0.0,VALID,87.713,VALID,251.21,VALID,21.192,VALID,355.0,VALID,0.143,
2017-06-06, 08:01:07,VALID,918.883,VALID,0.0,VALID,87.93,VALID,234.239,VALID,21.226,VALID,50.0,VALID,0.266,
2017-06-06, 08:02:07,VALID,918.891,VALID,0.0,VALID,87.269,VALID,215.293,VALID,21.204,VALID,45.0,VALID,0.252,
2017-06-06, 08:03:07,VALID,918.912,VALID,0.0,VALID,87.974,VALID,209.455,VALID,21.178,VALID,39.0,VALID,0.232,
2017-06-06, 08:04:07,VALID,918.923,VALID,0.0,VALID,87.896,VALID,216.79,VALID,21.2,VALID,34.0,VALID,0.163,
2017-06-06, 08:05:07,VALID,918.925,VALID,0.0,VALID,88.727,VALID,225.673,VALID,21.276,VALID,20.0,VALID,0.52,
2017-06-06, 08:06:07,VALID,918.921,VALID,0.0,VALID,87.943,VALID,228.258,VALID,21.281,VALID,41.0,VALID,0.745,
2017-06-06, 08:07:07,VALID,918.923,VALID,0.0,VALID,88.923,VALID,222.032,VALID,21.321,VALID,20.0,VALID,0.671,
2017-06-06, 08:08:07,VALID,918.921,VALID,0.0,VALID,88.899,VALID,222.909,VALID,21.39,VALID,8.0,VALID,0.689,
2017-06-06, 08:09:07,VALID,918.939,VALID,0.0,VALID,88.143,VALID,220.585,VALID,21.411,VALID,7.0,VALID,0.871,
2017-06-06, 08:10:07,VALID,918.963,VALID,0.0,VALID,88.131,VALID,238.231,VALID,21.403,VALID,7.0,VALID,0.739,
2017-06-06, 08:11:07,VALID,918.973,VALID,0.0,VALID,88.835,VALID,229.716,VALID,21.412,VALID,345.0,VALID,0.696,
2017-06-06, 08:12:07,VALID,918.985,VALID,0.0,VALID,88.557,VALID,249.788,VALID,21.447,VALID,358.0,VALID,0.575,
2017-06-06, 08:13:07,VALID,919.002,VALID,0.0,VALID,88.984,VALID,243.437,VALID,21.482,VALID,4.0,VALID,0.753,
2017-06-06, 08:14:07,VALID,919.006,VALID,0.0,VALID,89.758,VALID,244.427,VALID,21.498,VALID,355.0,VALID,0.353,
2017-06-06, 08:15:07,VALID,918.984,VALID,0.0,VALID,88.0,VALID,253.775,VALID,21.517,VALID,7.0,VALID,0.244,
2017-06-06, 08:16:07,VALID,918.961,VALID,0.0,VALID,87.657,VALID,256.059,VALID,21.562,VALID,37.0,VALID,0.412,
2017-06-06, 08:17:07,VALID,918.963,VALID,0.0,VALID,86.487,VALID,242.576,VALID,21.626,VALID,47.0,VALID,0.794,
2017-06-06, 08:18:07,VALID,918.987,VALID,0.0,VALID,86.728,VALID,240.59,VALID,21.691,VALID,55.0,VALID,0.253,
2017-06-06, 08:19:07,VALID,919.001,VALID,0.0,VALID,86.126,VALID,280.292,VALID,21.793,VALID,23.0,VALID,0.535,
2017-06-06, 08:20:07,VALID,918.996,VALID,0.0,VALID,84.544,VALID,289.143,VALID,21.807,VALID,28.0,VALID,0.575,
2017-06-06, 08:21:07,VALID,918.996,VALID,0.0,VALID,85.064,VALID,294.438,VALID,21.831,VALID,30.0,VALID,0.844,
2017-06-06, 08:22:07,VALID,918.981,VALID,0.0,VALID,83.97,VALID,330.049,VALID,21.796,VALID,26.0,VALID,0.721,
2017-06-06, 08:23:07,VALID,918.971,VALID,0.0,VALID,86.365,VALID,366.848,VALID,21.797,VALID,41.0,VALID,0.471,
2017-06-06, 08:24:07,VALID,918.961,VALID,0.0,VALID,87.238,VALID,391.031,VALID,21.97,VALID,38.0,VALID,0.292,
2017-06-06, 08:25:07,VALID,918.96,VALID,0.0,VALID,85.98,VALID,412.616,VALID,22.197,VALID,71.0,VALID,0.383,
2017-06-06, 08:26:07,VALID,918.976,VALID,0.0,VALID,83.765,VALID,414.138,VALID,22.329,VALID,70.0,VALID,0.934,
2017-06-06, 08:27:07,VALID,918.978,VALID,0.0,VALID,82.737,VALID,411.277,VALID,22.357,VALID,6.0,VALID,0.405,
2017-06-06, 08:28:07,VALID,918.965,VALID,0.0,VALID,83.115,VALID,411.383,VALID,22.507,VALID,50.0,VALID,1.095,
2017-06-06, 08:29:07,VALID,918.959,VALID,0.0,VALID,80.485,VALID,420.324,VALID,22.532,VALID,50.0,VALID,1.024,
2017-06-06, 08:30:07,VALID,918.945,VALID,0.0,VALID,82.093,VALID,422.761,VALID,22.562,VALID,54.0,VALID,0.944,
2017-06-06, 08:31:07,VALID,918.953,VALID,0.0,VALID,84.199,VALID,395.333,VALID,22.687,VALID,38.0,VALID,0.766,
2017-06-06, 08:32:07,VALID,918.963,VALID,0.0,VALID,82.453,VALID,425.696,VALID,22.89,VALID,71.0,VALID,0.924,
2017-06-06, 08:33:07,VALID,918.951,VALID,0.0,VALID,80.462,VALID,443.818,VALID,22.908,VALID,59.0,VALID,0.948,
2017-06-06, 08:34:07,VALID,918.956,VALID,0.0,VALID,79.57,VALID,440.497,VALID,22.879,VALID,69.0,VALID,0.627,
2017-06-06, 08:35:07,VALID,918.943,VALID,0.0,VALID,79.673,VALID,430.171,VALID,22.81,VALID,60.0,VALID,0.985,
2017-06-06, 08:36:07,VALID,918.938,VALID,0.0,VALID,80.648,VALID,446.5,VALID,22.778,VALID,41.0,VALID,0.961,
2017-06-06, 08:37:07,VALID,918.958,VALID,0.0,VALID,80.543,VALID,452.024,VALID,22.942,VALID,31.0,VALID,0.489,
2017-06-06, 08:38:07,VALID,918.959,VALID,0.0,VALID,79.594,VALID,471.353,VALID,23.071,VALID,358.0,VALID,0.336,
2017-06-06, 08:39:07,VALID,918.946,VALID,0.0,VALID,77.784,VALID,487.477,VALID,23.268,VALID,337.0,VALID,0.184,
2017-06-06, 08:40:07,VALID,918.959,VALID,0.0,VALID,77.527,VALID,487.751,VALID,23.379,VALID,304.0,VALID,0.382,
2017-06-06, 08:41:07,VALID,918.972,VALID,0.0,VALID,77.795,VALID,488.861,VALID,23.298,VALID,251.0,VALID,0.159,
2017-06-06, 08:42:07,VALID,918.993,VALID,0.0,VALID,77.875,VALID,494.16,VALID,23.263,VALID,227.0,VALID,0.129,
2017-06-06, 08:43:07,VALID,918.992,VALID,0.0,VALID,77.142,VALID,508.642,VALID,23.335,VALID,292.0,VALID,0.193,
2017-06-06, 08:44:07,VALID,918.991,VALID,0.0,VALID,77.59,VALID,520.346,VALID,23.501,VALID,31.0,VALID,0.68,
2017-06-06, 08:45:07,VALID,918.997,VALID,0.0,VALID,74.611,VALID,527.528,VALID,23.602,VALID,49.0,VALID,0.684,
2017-06-06, 08:46:07,VALID,919.017,VALID,0.0,VALID,75.088,VALID,530.757,VALID,23.629,VALID,14.0,VALID,0.854,
2017-06-06, 08:47:07,VALID,919.056,VALID,0.0,VALID,74.11,VALID,533.455,VALID,23.573,VALID,331.0,VALID,0.896,
2017-06-06, 08:48:07,VALID,919.08,VALID,0.0,VALID,73.737,VALID,538.66,VALID,23.383,VALID,299.0,VALID,0.519,
2017-06-06, 08:49:07,VALID,919.104,VALID,0.0,VALID,76.651,VALID,541.47,VALID,23.358,VALID,308.0,VALID,0.052,
2017-06-06, 08:50:07,VALID,919.106,VALID,0.0,VALID,76.243,VALID,540.887,VALID,23.575,VALID,353.0,VALID,0.493,
2017-06-06, 08:51:07,VALID,919.127,VALID,0.0,VALID,72.852,VALID,542.715,VALID,23.812,VALID,354.0,VALID,0.128,
2017-06-06, 08:52:07,VALID,919.163,VALID,0.0,VALID,72.155,VALID,548.26,VALID,24.07,VALID,3.0,VALID,0.232,
2017-06-06, 08:53:07,VALID,919.191,VALID,0.0,VALID,72.275,VALID,549.342,VALID,24.331,VALID,274.0,VALID,0.109,
2017-06-06, 08:54:07,VALID,919.214,VALID,0.0,VALID,72.013,VALID,544.949,VALID,24.322,VALID,298.0,VALID,0.387,
2017-06-06, 08:55:07,VALID,919.21,VALID,0.0,VALID,72.432,VALID,558.358,VALID,24.221,VALID,321.0,VALID,0.27,
2017-06-06, 08:56:07,VALID,919.205,VALID,0.0,VALID,71.452,VALID,561.41,VALID,24.418,VALID,302.0,VALID,0.169,
2017-06-06, 08:57:07,VALID,919.202,VALID,0.0,VALID,71.443,VALID,561.844,VALID,24.683,VALID,37.0,VALID,0.802,
2017-06-06, 08:58:07,VALID,919.216,VALID,0.0,VALID,68.28,VALID,562.149,VALID,24.663,VALID,25.0,VALID,0.821,
2017-06-06, 08:59:07,VALID,919.229,VALID,0.0,VALID,69.247,VALID,562.215,VALID,24.567,VALID,25.0,VALID,1.259,
2017-06-06, 09:00:06,VALID,919.273,VALID,0.0,VALID,68.926,VALID,571.536,VALID,24.286,VALID,19.0,VALID,1.34,
2017-06-06, 09:01:06,VALID,919.326,VALID,0.0,VALID,70.718,VALID,523.438,VALID,24.079,VALID,15.0,VALID,0.693,
2017-06-06, 09:02:06,VALID,919.351,VALID,0.0,VALID,70.218,VALID,539.47,VALID,24.114,VALID,341.0,VALID,0.607,
2017-06-06, 09:03:06,VALID,919.348,VALID,0.0,VALID,70.166,VALID,426.128,VALID,24.162,VALID,1.0,VALID,1.059,
2017-06-06, 09:04:06,VALID,919.317,VALID,0.0,VALID,69.595,VALID,335.104,VALID,23.9,VALID,17.0,VALID,1.117,
2017-06-06, 09:05:06,VALID,919.3,VALID,0.0,VALID,70.906,VALID,462.553,VALID,23.64,VALID,13.0,VALID,1.423,
2017-06-06, 09:06:06,VALID,919.313,VALID,0.0,VALID,71.506,VALID,604.318,VALID,23.503,VALID,19.0,VALID,1.05,
2017-06-06, 09:07:06,VALID,919.325,VALID,0.0,VALID,71.696,VALID,626.361,VALID,23.499,VALID,31.0,VALID,0.245,
2017-06-06, 09:08:06,VALID,919.335,VALID,0.0,VALID,71.75,VALID,658.573,VALID,23.785,VALID,23.0,VALID,0.812,
2017-06-06, 09:09:06,VALID,919.344,VALID,0.0,VALID,71.349,VALID,703.474,VALID,24.043,VALID,16.0,VALID,0.99,
2017-06-06, 09:10:06,VALID,919.361,VALID,0.0,VALID,69.566,VALID,731.559,VALID,23.975,VALID,68.0,VALID,0.44,
2017-06-06, 09:11:06,VALID,919.362,VALID,0.0,VALID,71.626,VALID,487.598,VALID,23.906,VALID,62.0,VALID,0.727,
2017-06-06, 09:12:06,VALID,919.373,VALID,0.0,VALID,72.101,VALID,415.037,VALID,24.007,VALID,27.0,VALID,1.057,
2017-06-06, 09:13:06,VALID,919.385,VALID,0.0,VALID,70.793,VALID,403.836,VALID,24.156,VALID,339.0,VALID,0.364,
2017-06-06, 09:14:06,VALID,919.383,VALID,0.0,VALID,68.855,VALID,441.427,VALID,24.287,VALID,343.0,VALID,0.798,
2017-06-06, 09:15:06,VALID,919.367,VALID,0.0,VALID,68.341,VALID,455.414,VALID,24.172,VALID,4.0,VALID,0.954,
2017-06-06, 09:16:06,VALID,919.35,VALID,0.0,VALID,69.474,VALID,692.875,VALID,23.997,VALID,29.0,VALID,0.891,
2017-06-06, 09:17:06,VALID,919.347,VALID,0.0,VALID,68.93,VALID,600.711,VALID,24.092,VALID,30.0,VALID,1.236,
2017-06-06, 09:18:06,VALID,919.364,VALID,0.0,VALID,68.559,VALID,623.162,VALID,24.119,VALID,20.0,VALID,0.619,
2017-06-06, 09:19:06,VALID,919.373,VALID,0.0,VALID,69.209,VALID,388.672,VALID,24.233,VALID,4.0,VALID,0.53,
2017-06-06, 09:20:06,VALID,919.401,VALID,0.0,VALID,69.072,VALID,492.492,VALID,24.181,VALID,356.0,VALID,0.527,
2017-06-06, 09:21:06,VALID,919.402,VALID,0.0,VALID,69.189,VALID,403.688,VALID,24.259,VALID,8.0,VALID,0.267,
2017-06-06, 09:22:06,VALID,919.404,VALID,0.0,VALID,68.326,VALID,298.701,VALID,24.44,VALID,19.0,VALID,0.618,
2017-06-06, 09:23:06,VALID,919.402,VALID,0.0,VALID,67.62,VALID,411.007,VALID,24.471,VALID,344.0,VALID,0.206,
2017-06-06, 09:24:06,VALID,919.403,VALID,0.0,VALID,67.539,VALID,373.662,VALID,24.35,VALID,304.0,VALID,0.415,
2017-06-06, 09:25:06,VALID,919.426,VALID,0.0,VALID,68.089,VALID,569.805,VALID,24.197,VALID,358.0,VALID,0.448,
2017-06-06, 09:26:06,VALID,919.427,VALID,0.0,VALID,70.32,VALID,330.315,VALID,24.171,VALID,19.0,VALID,0.385,
2017-06-06, 09:27:06,VALID,919.433,VALID,0.0,VALID,71.294,VALID,320.141,VALID,24.2,VALID,15.0,VALID,0.805,
2017-06-06, 09:28:06,VALID,919.44,VALID,0.0,VALID,70.356,VALID,602.727,VALID,24.242,VALID,15.0,VALID,1.133,
2017-06-06, 09:29:06,VALID,919.428,VALID,0.0,VALID,69.204,VALID,592.704,VALID,24.213,VALID,353.0,VALID,1.352,
2017-06-06, 09:30:06,VALID,919.448,VALID,0.0,VALID,68.124,VALID,617.261,VALID,24.173,VALID,333.0,VALID,1.096,
2017-06-06, 09:31:06,VALID,919.443,VALID,0.0,VALID,69.411,VALID,328.234,VALID,24.137,VALID,4.0,VALID,1.491,
2017-06-06, 09:32:06,VALID,919.468,VALID,0.0,VALID,67.912,VALID,658.32,VALID,24.038,VALID,7.0,VALID,1.057,
2017-06-06, 09:33:06,VALID,919.498,VALID,0.0,VALID,68.719,VALID,785.211,VALID,24.123,VALID,325.0,VALID,0.596,
2017-06-06, 09:34:06,VALID,919.505,VALID,0.0,VALID,68.45,VALID,581.218,VALID,24.286,VALID,301.0,VALID,0.665,
2017-06-06, 09:35:06,VALID,919.509,VALID,0.0,VALID,67.077,VALID,709.924,VALID,24.285,VALID,260.0,VALID,0.301,
2017-06-06, 09:36:06,VALID,919.491,VALID,0.0,VALID,67.738,VALID,769.65,VALID,24.443,VALID,350.0,VALID,0.112,
2017-06-06, 09:37:06,VALID,919.474,VALID,0.0,VALID,67.348,VALID,796.249,VALID,24.766,VALID,312.0,VALID,0.671,
2017-06-06, 09:38:06,VALID,919.46,VALID,0.0,VALID,66.925,VALID,743.151,VALID,24.661,VALID,291.0,VALID,1.022,
2017-06-06, 09:39:06,VALID,919.438,VALID,0.0,VALID,66.635,VALID,677.375,VALID,24.41,VALID,295.0,VALID,0.934,
2017-06-06, 09:40:06,VALID,919.419,VALID,0.0,VALID,67.636,VALID,636.034,VALID,24.285,VALID,276.0,VALID,1.222,
2017-06-06, 09:41:06,VALID,919.401,VALID,0.0,VALID,69.388,VALID,673.798,VALID,24.226,VALID,324.0,VALID,1.699,
2017-06-06, 09:42:06,VALID,919.389,VALID,0.0,VALID,69.32,VALID,635.922,VALID,24.309,VALID,337.0,VALID,1.124,
2017-06-06, 09:43:06,VALID,919.383,VALID,0.0,VALID,68.527,VALID,607.639,VALID,24.414,VALID,322.0,VALID,0.294,
2017-06-06, 09:44:06,VALID,919.368,VALID,0.0,VALID,68.059,VALID,661.14,VALID,24.492,VALID,297.0,VALID,0.87,
2017-06-06, 09:45:06,VALID,919.344,VALID,0.0,VALID,67.623,VALID,674.177,VALID,24.456,VALID,344.0,VALID,0.395,
2017-06-06, 09:46:06,VALID,919.344,VALID,0.0,VALID,69.257,VALID,680.212,VALID,24.598,VALID,355.0,VALID,1.158,
2017-06-06, 09:47:06,VALID,919.345,VALID,0.0,VALID,68.4,VALID,703.916,VALID,24.692,VALID,348.0,VALID,0.779,
2017-06-06, 09:48:06,VALID,919.346,VALID,0.0,VALID,68.548,VALID,731.044,VALID,25.002,VALID,330.0,VALID,0.702,
2017-06-06, 09:49:06,VALID,919.353,VALID,0.0,VALID,67.267,VALID,753.826,VALID,25.341,VALID,324.0,VALID,0.431,
2017-06-06, 09:50:06,VALID,919.353,VALID,0.0,VALID,64.786,VALID,793.561,VALID,25.473,VALID,232.0,VALID,0.973,
2017-06-06, 09:51:06,VALID,919.366,VALID,0.0,VALID,65.927,VALID,768.364,VALID,25.348,VALID,262.0,VALID,0.79,
2017-06-06, 09:52:06,VALID,919.363,VALID,0.0,VALID,65.966,VALID,919.64,VALID,25.315,VALID,306.0,VALID,0.63,
2017-06-06, 09:53:06,VALID,919.349,VALID,0.0,VALID,64.637,VALID,498.149,VALID,25.244,VALID,289.0,VALID,0.391,
2017-06-06, 09:54:06,VALID,919.344,VALID,0.0,VALID,66.115,VALID,454.01,VALID,25.247,VALID,293.0,VALID,0.583,
2017-06-06, 09:55:06,VALID,919.295,VALID,0.0,VALID,66.057,VALID,508.686,VALID,25.06,VALID,258.0,VALID,0.555,
2017-06-06, 09:56:06,VALID,919.291,VALID,0.0,VALID,68.354,VALID,702.201,VALID,25.05,VALID,289.0,VALID,0.388,
2017-06-06, 09:57:06,VALID,919.258,VALID,0.0,VALID,66.22,VALID,741.953,VALID,25.126,VALID,305.0,VALID,0.245,
2017-06-06, 09:58:06,VALID,919.276,VALID,0.0,VALID,67.761,VALID,862.364,VALID,25.296,VALID,267.0,VALID,0.173,
2017-06-06, 09:59:06,VALID,919.266,VALID,0.0,VALID,66.852,VALID,860.357,VALID,25.712,VALID,138.0,VALID,0.04,
2017-06-06, 10:00:06,VALID,919.256,VALID,0.0,VALID,64.987,VALID,927.107,VALID,26.209,VALID,38.0,VALID,0.737,
2017-06-06, 10:01:06,VALID,919.272,VALID,0.0,VALID,63.873,VALID,1016.714,VALID,26.54,VALID,26.0,VALID,0.826,
2017-06-06, 10:02:06,VALID,919.27,VALID,0.0,VALID,64.63,VALID,794.958,VALID,26.728,VALID,337.0,VALID,0.614,
2017-06-06, 10:03:06,VALID,919.259,VALID,0.0,VALID,61.49,VALID,652.909,VALID,26.799,VALID,344.0,VALID,0.745,
2017-06-06, 10:04:06,VALID,919.247,VALID,0.0,VALID,61.505,VALID,668.548,VALID,26.642,VALID,330.0,VALID,0.296,
2017-06-06, 10:05:06,VALID,919.233,VALID,0.0,VALID,60.484,VALID,919.716,VALID,26.546,VALID,232.0,VALID,0.188,
2017-06-06, 10:06:06,VALID,919.224,VALID,0.0,VALID,60.769,VALID,777.787,VALID,26.586,VALID,275.0,VALID,0.383,
2017-06-06, 10:07:06,VALID,919.206,VALID,0.0,VALID,60.757,VALID,462.443,VALID,26.525,VALID,15.0,VALID,1.254,
2017-06-06, 10:08:06,VALID,919.218,VALID,0.0,VALID,62.459,VALID,504.117,VALID,26.493,VALID,345.0,VALID,0.729,
2017-06-06, 10:09:06,VALID,919.205,VALID,0.0,VALID,61.694,VALID,451.106,VALID,26.415,VALID,9.0,VALID,0.357,
2017-06-06, 10:10:06,VALID,919.214,VALID,0.0,VALID,61.86,VALID,408.867,VALID,26.248,VALID,6.0,VALID,0.941,
2017-06-06, 10:11:06,VALID,919.227,VALID,0.0,VALID,62.565,VALID,634.848,VALID,26.011,VALID,294.0,VALID,0.252,
2017-06-06, 10:12:06,VALID,919.241,VALID,0.0,VALID,63.637,VALID,593.443,VALID,25.942,VALID,315.0,VALID,1.065,
2017-06-06, 10:13:06,VALID,919.233,VALID,0.0,VALID,62.911,VALID,811.262,VALID,25.785,VALID,330.0,VALID,0.811,
2017-06-06, 10:14:06,VALID,919.204,VALID,0.0,VALID,65.072,VALID,893.502,VALID,25.697,VALID,11.0,VALID,1.243,
2017-06-06, 10:15:06,VALID,919.191,VALID,0.0,VALID,64.326,VALID,883.411,VALID,25.709,VALID,360.0,VALID,1.99,
2017-06-06, 10:16:06,VALID,919.186,VALID,0.0,VALID,60.87,VALID,881.697,VALID,25.691,VALID,355.0,VALID,1.414,
2017-06-06, 10:17:06,VALID,919.176,VALID,0.0,VALID,62.272,VALID,1010.357,VALID,25.737,VALID,15.0,VALID,1.457,
2017-06-06, 10:18:06,VALID,919.195,VALID,0.0,VALID,63.728,VALID,992.671,VALID,25.895,VALID,339.0,VALID,0.971,
2017-06-06, 10:19:06,VALID,919.199,VALID,0.0,VALID,62.188,VALID,975.564,VALID,25.949,VALID,295.0,VALID,0.911,
2017-06-06, 10:20:06,VALID,919.186,VALID,0.0,VALID,61.826,VALID,561.11,VALID,25.783,VALID,274.0,VALID,0.69,
2017-06-06, 10:21:06,VALID,919.15,VALID,0.0,VALID,62.851,VALID,552.945,VALID,25.72,VALID,250.0,VALID,1.248,
2017-06-06, 10:22:06,VALID,919.154,VALID,0.0,VALID,62.83,VALID,479.146,VALID,25.663,VALID,337.0,VALID,1.539,
2017-06-06, 10:23:06,VALID,919.133,VALID,0.0,VALID,63.232,VALID,437.159,VALID,25.567,VALID,358.0,VALID,2.813,
2017-06-06, 10:24:06,VALID,919.092,VALID,0.0,VALID,62.124,VALID,614.581,VALID,25.164,VALID,13.0,VALID,2.361,
2017-06-06, 10:25:06,VALID,919.093,VALID,0.0,VALID,64.96,VALID,439.862,VALID,24.936,VALID,5.0,VALID,1.848,
2017-06-06, 10:26:06,VALID,919.087,VALID,0.0,VALID,66.278,VALID,491.307,VALID,25.036,VALID,360.0,VALID,0.986,
2017-06-06, 10:27:06,VALID,919.106,VALID,0.0,VALID,66.518,VALID,509.375,VALID,25.277,VALID,17.0,VALID,1.154,
2017-06-06, 10:28:06,VALID,919.101,VALID,0.0,VALID,65.991,VALID,516.606,VALID,25.478,VALID,18.0,VALID,1.216,
2017-06-06, 10:29:06,VALID,919.101,VALID,0.0,VALID,66.421,VALID,525.918,VALID,25.541,VALID,11.0,VALID,0.943,
2017-06-06, 10:30:06,VALID,919.112,VALID,0.0,VALID,66.144,VALID,509.241,VALID,25.701,VALID,6.0,VALID,1.074,
2017-06-06, 10:31:06,VALID,919.121,VALID,0.0,VALID,62.262,VALID,490.378,VALID,25.738,VALID,352.0,VALID,1.364,
2017-06-06, 10:32:06,VALID,919.119,VALID,0.0,VALID,60.793,VALID,439.68,VALID,25.535,VALID,1.0,VALID,1.353,
2017-06-06, 10:33:06,VALID,919.114,VALID,0.0,VALID,62.399,VALID,421.233,VALID,25.327,VALID,17.0,VALID,0.944,
2017-06-06, 10:34:06,VALID,919.089,VALID,0.0,VALID,62.425,VALID,422.051,VALID,25.397,VALID,45.0,VALID,0.922,
2017-06-06, 10:35:06,VALID,919.078,VALID,0.0,VALID,62.257,VALID,441.373,VALID,25.539,VALID,22.0,VALID,1.302,
2017-06-06, 10:36:06,VALID,919.067,VALID,0.0,VALID,63.104,VALID,477.67,VALID,25.622,VALID,17.0,VALID,1.379,